Regional Weather Roundup
Issued by NWS

Home | Current Version | Previous Version | Graphics & Text | Print | Product List | Glossary Off
Versions: 1 2 3 4 5 6 7 8 9 10 11 12 13 14 15 16 17 18 19 20 21 22 23 24 25 26 27 28 29 30 31 32 33 34 35 36 37 38 39 40 41 42 43 44 45 46 47 48 49 50

400
ASUS43 KFSD 221702
RWRSD

WEATHER ROUNDUP FOR SOUTH DAKOTA
NATIONAL WEATHER SERVICE SIOUX FALLS SD
1100 AM CST WED NOV 22 2017

NOTE: "FAIR" INDICATES FEW OR NO CLOUDS BELOW 12,000 FEET WITH NO
SIGNIFICANT WEATHER AND/OR OBSTRUCTIONS TO VISIBILITY.


SDZ001>005-009-010-012>017-221800-
NORTHWEST AND NORTH CENTRAL SOUTH DAKOTA

CITY           SKY/WX    TMP DP  RH WIND       PRES   REMARKS
BUFFALO          N/A     60  36  40 W25G33    29.91R
FAITH            N/A     44  25  47 SW12      29.96F
MOBRIDGE       CLOUDY    31  21  66 S9        29.94F WCI  23
$$

SDZ012>016-024>037-041>051-057-063-072>074-221800-
SOUTHWEST AND SOUTH CENTRAL SOUTH DAKOTA

CITY           SKY/WX    TMP DP  RH WIND       PRES   REMARKS
RAPID CTY ARPT SUNNY     59  32  36 S3        30.03R
PIERRE         CLOUDY    32  22  66 S7        30.01F WCI  26
CUSTER         SUNNY     56  30  37 W14       30.13R
ELLSWORTH AFB  SUNNY     66  36  33 NW14      30.02R
PHILIP         CLOUDY    49  34  56 W12       30.01F
PINE RIDGE     SUNNY     55  35  47 W12       30.10R
SPEARFISH      FAIR      63  36  36 W21G29    30.06R
WINNER         FAIR      44  30  57 SW13      30.04F
$$

SDZ004>011-016>023-039-040-221800-
NORTHEAST SOUTH DAKOTA

CITY           SKY/WX    TMP DP  RH WIND       PRES   REMARKS
ABERDEEN       CLOUDY    27  15  61 S15       30.06F WCI  15
WATERTOWN      CLOUDY    26  14  60 S16       30.08F WCI  14
BROOKINGS      CLOUDY    26  14  60 S17       30.13F WCI  13
SISSETON         N/A     28  15  58 S15       30.08F WCI  16
$$

SDZ017-020-022-023-036>040-048>070-221800-
SOUTHEAST SOUTH DAKOTA

CITY           SKY/WX    TMP DP  RH WIND       PRES   REMARKS
SIOUX FALLS    PTSUNNY   29  14  53 S17       30.20F WCI  17
HURON          CLOUDY    28  15  58 S16G24    30.09F WCI  16
CHAMBERLAIN    CLOUDY    36  24  61 SE9       30.05F
MITCHELL       CLOUDY    30  16  56 S13       30.13F WCI  20
YANKTON        CLOUDY    32  17  54 S18G25    30.18F WCI  20
$$

ABBREVIATIONS USED IN REMARKS
   TC - TEMPERATURE IN CELSIUS
  WCI - WIND CHILL INDEX
   HX - HEAT INDEX
  VSB - VISIBILITY





USA.gov is the U.S. government's official web portal to all federal, state and local government web resources and services.